Location: Catacaguana
(10.4120°N, 66.7591°W)
Time: 06:32:37
(UTC+00:00)

Meteor 1-27 Rocket - Pass Details

Date: 27 May 2022
Orbit: 830 x 909 km, 81.3° (Epoch: 28 June)

Event Time Altitude Azimuth Distance (km) Brightness Sun altitude
Exits shadow 00:42:10 45° 197° (SSW) 1,150 4.2 -27.0°
Maximum altitude 00:43:58 79° 275° (W) 884 3.7 -27.4°
Drops below altitude 10° 00:49:43 10° 2° (N) 2,530 6.5 -28.6°
Sets 00:52:11 0° 3° (N) 3,480 7.3 -29.1°
